When you browse on this site, cookies collect data to enhance your experience and personalize the content and advertising you see.
Visit our Privacy Policy to learn more. By continuing to use the site, you agree to this use of cookies and data.
  • In Hungary
  • List of Countries
  • For 7 days
  • Water Temperature
  • Satellite Maps
  • Weather Map
  • News
  • Weather Widgets
  • user-avatar
    Login

    Hourly Weather Ras al-Chajma

    Today, 20 March, Wednesday

    Time Temperature Precipitation Wind Pressure Humidity
    00:00 +21°C° 0 mm 4 mps 757 mmHg 65%
    01:00 +21°C° 0 mm 4 mps 757 mmHg 66%
    02:00 +20°C° 0 mm 4 mps 756 mmHg 68%
    03:00 +20°C° 0 mm 4 mps 756 mmHg 70%
    04:00 +20°C° 0 mm 3 mps 756 mmHg 76%
    05:00 +19°C° 0 mm 3 mps 756 mmHg 76%
    06:00 +19°C° 0 mm 4 mps 756 mmHg 76%
    07:00 +19°C° 0 mm 4 mps 757 mmHg 77%
    08:00 +21°C° 0 mm 4 mps 757 mmHg 69%
    09:00 +22°C° 0 mm 4 mps 757 mmHg 62%
    10:00 +23°C° 0 mm 4 mps 757 mmHg 55%
    11:00 +25°C° 0 mm 5 mps 757 mmHg 50%
    12:00 +26°C° 0 mm 5 mps 757 mmHg 45%
    13:00 +27°C° 0 mm 5 mps 757 mmHg 41%
    14:00 +27°C° 0 mm 5 mps 756 mmHg 40%
    15:00 +27°C° 0 mm 5 mps 756 mmHg 40%
    16:00 +27°C° 0 mm 5 mps 755 mmHg 40%
    17:00 +26°C° 0 mm 5 mps 755 mmHg 43%
    18:00 +25°C° 0 mm 4 mps 755 mmHg 47%
    19:00 +23°C° 0 mm 4 mps 755 mmHg 50%
    20:00 +23°C° 0 mm 4 mps 756 mmHg 53%
    21:00 +23°C° 0 mm 4 mps 756 mmHg 55%
    22:00 +22°C° 0 mm 3 mps 756 mmHg 58%
    23:00 +22°C° 0 mm 3 mps 756 mmHg 59%

    Tomorrow, 21 March, Thursday

    Time Temperature Precipitation Wind Pressure Humidity
    00:00 +22°C° 0 mm 4 mps 756 mmHg 60%
    01:00 +21°C° 0 mm 4 mps 756 mmHg 60%
    02:00 +21°C° 0 mm 4 mps 756 mmHg 62%
    03:00 +21°C° 0 mm 4 mps 756 mmHg 63%
    04:00 +21°C° 0 mm 3 mps 755 mmHg 64%
    05:00 +21°C° 0 mm 3 mps 756 mmHg 64%
    06:00 +21°C° 0 mm 3 mps 756 mmHg 63%
    07:00 +21°C° 0 mm 3 mps 756 mmHg 62%
    08:00 +24°C° 0 mm 3 mps 757 mmHg 54%
    09:00 +25°C° 0 mm 2 mps 757 mmHg 46%
    10:00 +27°C° 0 mm 2 mps 757 mmHg 37%
    11:00 +28°C° 0 mm 2 mps 757 mmHg 35%
    12:00 +29°C° 0 mm 3 mps 757 mmHg 33%
    13:00 +30°C° 0 mm 3 mps 757 mmHg 31%
    14:00 +30°C° 0 mm 4 mps 756 mmHg 31%
    15:00 +30°C° 0 mm 4 mps 756 mmHg 32%
    16:00 +30°C° 0 mm 4 mps 756 mmHg 33%
    17:00 +29°C° 0 mm 3 mps 756 mmHg 36%
    18:00 +28°C° 0 mm 3 mps 756 mmHg 38%
    19:00 +27°C° 0 mm 2 mps 756 mmHg 41%
    20:00 +27°C° 0 mm 2 mps 757 mmHg 41%
    21:00 +27°C° 0 mm 1 mps 757 mmHg 40%
    22:00 +27°C° 0 mm 1 mps 757 mmHg 40%
    23:00 +26°C° 0 mm 1 mps 757 mmHg 39%

    Day after tomorrow, 22 March, Friday

    Time Temperature Precipitation Wind Pressure Humidity
    00:00 +26°C° 0 mm 1 mps 756 mmHg 39%
    01:00 +26°C° 0 mm 1 mps 756 mmHg 39%
    02:00 +25°C° 0 mm 1 mps 756 mmHg 40%
    03:00 +25°C° 0 mm 1 mps 756 mmHg 41%
    04:00 +25°C° 0 mm 1 mps 756 mmHg 42%
    05:00 +25°C° 0 mm 1 mps 756 mmHg 41%
    06:00 +25°C° 0 mm 1 mps 756 mmHg 39%
    07:00 +26°C° 0 mm 1 mps 757 mmHg 38%
    08:00 +27°C° 0 mm 1 mps 757 mmHg 33%
    09:00 +29°C° 0 mm 1 mps 758 mmHg 29%
    10:00 +30°C° 0 mm 1 mps 759 mmHg 25%
    11:00 +31°C° 0 mm 2 mps 759 mmHg 25%
    12:00 +31°C° 0 mm 3 mps 758 mmHg 24%
    13:00 +33°C° 0 mm 4 mps 758 mmHg 24%
    14:00 +32°C° 0 mm 4 mps 758 mmHg 27%
    15:00 +32°C° 0 mm 5 mps 757 mmHg 31%
    16:00 +32°C° 0 mm 6 mps 757 mmHg 34%
    17:00 +30°C° 0 mm 5 mps 757 mmHg 36%
    18:00 +30°C° 0 mm 5 mps 757 mmHg 38%
    19:00 +29°C° 0 mm 4 mps 757 mmHg 40%
    20:00 +29°C° 0 mm 3 mps 758 mmHg 40%
    21:00 +28°C° 0 mm 3 mps 758 mmHg 40%
    22:00 +28°C° 0 mm 2 mps 758 mmHg 40%
    23:00 +28°C° 0 mm 3 mps 758 mmHg 39%

    23 March, Saturday

    Time Temperature Precipitation Wind Pressure Humidity
    00:00 +28°C° 0 mm 3 mps 758 mmHg 39%
    01:00 +28°C° 0 mm 3 mps 757 mmHg 38%
    02:00 +28°C° 0.2 mm 3 mps 757 mmHg 38%
    03:00 +27°C° 0.2 mm 4 mps 757 mmHg 38%
    04:00 +27°C° 0.2 mm 4 mps 756 mmHg 39%
    05:00 +27°C° 0.2 mm 4 mps 757 mmHg 40%
    06:00 +27°C° 0.2 mm 4 mps 757 mmHg 41%
    07:00 +27°C° 0.2 mm 4 mps 758 mmHg 43%
    08:00 +27°C° 0.1 mm 4 mps 758 mmHg 42%
    09:00 +28°C° 0.1 mm 4 mps 759 mmHg 41%
    10:00 +29°C° 0.1 mm 4 mps 759 mmHg 40%
    11:00 +29°C° 0.2 mm 4 mps 759 mmHg 41%
    12:00 +30°C° 0.2 mm 4 mps 758 mmHg 41%
    13:00 +30°C° 0.2 mm 4 mps 758 mmHg 41%
    14:00 +30°C° 0.1 mm 4 mps 757 mmHg 41%
    15:00 +30°C° 0.1 mm 5 mps 756 mmHg 42%
    16:00 +30°C° 0.1 mm 5 mps 756 mmHg 42%
    17:00 +30°C° 0.1 mm 5 mps 756 mmHg 44%
    18:00 +29°C° 0.1 mm 5 mps 756 mmHg 47%
    19:00 +28°C° 0.1 mm 5 mps 756 mmHg 50%
    20:00 +28°C° 0.5 mm 5 mps 756 mmHg 52%
    21:00 +27°C° 0.5 mm 5 mps 756 mmHg 53%
    22:00 +27°C° 0.5 mm 5 mps 757 mmHg 55%
    23:00 +27°C° 0.4 mm 5 mps 756 mmHg 57%

    24 March, Sunday

    Time Temperature Precipitation Wind Pressure Humidity
    00:00 +26°C° 0.4 mm 5 mps 756 mmHg 58%
    01:00 +26°C° 0.4 mm 5 mps 755 mmHg 59%
    02:00 +26°C° 0.1 mm 4 mps 755 mmHg 61%
    03:00 +26°C° 0.1 mm 4 mps 755 mmHg 63%
    04:00 +26°C° 0.1 mm 3 mps 754 mmHg 64%
    05:00 +25°C° 0 mm 3 mps 755 mmHg 68%
    06:00 +25°C° 0 mm 3 mps 755 mmHg 71%
    07:00 +25°C° 0 mm 3 mps 755 mmHg 74%
    08:00 +26°C° 0.1 mm 3 mps 755 mmHg 70%
    09:00 +27°C° 0.1 mm 3 mps 756 mmHg 67%
    10:00 +28°C° 0.1 mm 4 mps 756 mmHg 64%
    11:00 +29°C° 0 mm 4 mps 756 mmHg 59%
    12:00 +29°C° 0 mm 4 mps 755 mmHg 55%
    13:00 +30°C° 0 mm 3 mps 754 mmHg 51%
    14:00 +31°C° 0 mm 3 mps 754 mmHg 50%
    15:00 +31°C° 0 mm 3 mps 753 mmHg 49%
    16:00 +33°C° 0 mm 3 mps 753 mmHg 47%
    17:00 +31°C° 0 mm 3 mps 753 mmHg 50%
    18:00 +30°C° 0 mm 3 mps 753 mmHg 54%
    19:00 +30°C° 0 mm 3 mps 753 mmHg 57%
    20:00 +29°C° 0 mm 3 mps 754 mmHg 59%
    21:00 +28°C° 0 mm 4 mps 754 mmHg 62%
    22:00 +28°C° 0 mm 4 mps 754 mmHg 64%
    23:00 +28°C° 0 mm 4 mps 754 mmHg 65%

    25 March, Monday

    Time Temperature Precipitation Wind Pressure Humidity
    00:00 +27°C° 0 mm 4 mps 753 mmHg 66%
    01:00 +27°C° 0 mm 4 mps 753 mmHg 67%
    02:00 +27°C° 0 mm 4 mps 753 mmHg 71%
    03:00 +26°C° 0 mm 5 mps 752 mmHg 74%
    04:00 +26°C° 0 mm 5 mps 752 mmHg 78%
    05:00 +26°C° 0 mm 5 mps 753 mmHg 79%
    06:00 +26°C° 0 mm 4 mps 754 mmHg 80%
    07:00 +25°C° 0 mm 3 mps 754 mmHg 81%
    08:00 +26°C° 0 mm 3 mps 755 mmHg 77%
    09:00 +27°C° 0 mm 4 mps 756 mmHg 73%
    10:00 +28°C° 0 mm 4 mps 756 mmHg 68%
    11:00 +29°C° 0 mm 4 mps 756 mmHg 65%
    12:00 +29°C° 0 mm 4 mps 756 mmHg 62%
    13:00 +30°C° 0 mm 4 mps 756 mmHg 59%
    14:00 +30°C° 0.1 mm 5 mps 755 mmHg 58%
    15:00 +30°C° 0.1 mm 5 mps 755 mmHg 58%
    16:00 +30°C° 0.1 mm 6 mps 755 mmHg 58%
    17:00 +29°C° 0.1 mm 6 mps 755 mmHg 60%
    18:00 +29°C° 0.1 mm 6 mps 755 mmHg 62%
    19:00 +28°C° 0.1 mm 6 mps 755 mmHg 63%
    20:00 +28°C° 0.1 mm 6 mps 755 mmHg 63%
    21:00 +27°C° 0.1 mm 5 mps 756 mmHg 62%
    22:00 +27°C° 0.1 mm 5 mps 756 mmHg 61%
    23:00 +27°C° 0 mm 5 mps 756 mmHg 61%
    Show more